TimeCST,TemperatureF,Dew PointF,Humidity,Sea Level PressureIn,VisibilityMPH,Wind Direction,Wind SpeedMPH,Gust SpeedMPH,PrecipitationIn,Events,Conditions,WindDirDegrees,DateUTC
12:56 AM,42.1,30.9,65,30.05,-9999.0,Calm,Calm,-,N/A,,Unknown,0,2013-01-19 06:56:00
1:56 AM,42.1,30.0,62,30.04,-9999.0,South,5.8,-,N/A,,Unknown,180,2013-01-19 07:56:00
2:56 AM,39.0,30.0,70,30.04,-9999.0,South,6.9,-,N/A,,Unknown,170,2013-01-19 08:56:00
3:56 AM,37.9,30.0,73,30.02,-9999.0,South,8.1,-,N/A,,Unknown,180,2013-01-19 09:56:00
4:56 AM,30.9,28.0,89,30.03,-9999.0,Calm,Calm,-,N/A,,Unknown,0,2013-01-19 10:56:00
5:56 AM,33.1,28.9,85,30.03,-9999.0,South,5.8,-,N/A,,Unknown,170,2013-01-19 11:56:00
6:56 AM,26.1,24.1,92,30.07,-9999.0,Variable,3.5,-,N/A,,Unknown,0,2013-01-19 12:56:00
7:56 AM,28.9,27.0,92,30.09,-9999.0,Calm,Calm,-,N/A,,Unknown,0,2013-01-19 13:56:00
8:56 AM,32.0,27.0,82,30.11,-9999.0,Calm,Calm,-,N/A,,Unknown,0,2013-01-19 14:56:00
9:56 AM,39.9,30.9,70,30.13,-9999.0,Calm,Calm,-,N/A,,Unknown,0,2013-01-19 15:56:00
10:56 AM,48.9,30.0,48,30.13,-9999.0,Calm,Calm,-,N/A,,Unknown,0,2013-01-19 16:56:00
11:56 AM,59.0,23.0,25,30.10,-9999.0,NNW,8.1,-,N/A,,Unknown,340,2013-01-19 17:56:00
12:56 PM,62.1,21.9,21,30.09,-9999.0,North,8.1,-,N/A,,Unknown,360,2013-01-19 18:56:00
1:56 PM,63.0,23.0,22,30.09,-9999.0,North,15.0,20.7,N/A,,Unknown,350,2013-01-19 19:56:00
2:56 PM,64.0,21.0,19,30.10,-9999.0,North,10.4,-,N/A,,Unknown,10,2013-01-19 20:56:00
3:56 PM,64.9,21.0,19,30.11,-9999.0,NNE,12.7,-,N/A,,Unknown,20,2013-01-19 21:56:00
4:56 PM,63.0,21.0,20,30.15,-9999.0,NNE,9.2,-,N/A,,Unknown,20,2013-01-19 22:56:00
5:56 PM,53.1,23.0,31,30.18,-9999.0,North,9.2,-,N/A,,Unknown,360,2013-01-19 23:56:00
6:56 PM,46.9,23.0,39,30.21,-9999.0,NNE,5.8,-,N/A,,Unknown,20,2013-01-20 00:56:00
7:56 PM,42.1,24.1,49,30.23,-9999.0,North,6.9,-,N/A,,Unknown,10,2013-01-20 01:56:00
8:56 PM,37.0,24.1,59,30.25,-9999.0,North,6.9,-,N/A,,Unknown,10,2013-01-20 02:56:00
9:56 PM,39.0,23.0,53,30.25,-9999.0,North,4.6,-,N/A,,Unknown,350,2013-01-20 03:56:00
10:56 PM,37.9,24.1,57,30.26,-9999.0,West,3.5,-,N/A,,Unknown,280,2013-01-20 04:56:00
11:56 PM,32.0,23.0,69,30.25,-9999.0,North,4.6,-,N/A,,Unknown,360,2013-01-20 05:56:00